GPS BIIRM-3 (PRN 12)

Last updated on July 6, 2021, 3:39 p.m. UTC

1 29601U 06052A   21185.57195187 -.00000061  00000-0  00000-0 0  9999
2 29601  55.7555 285.7877 0081216  69.6670 291.2315  2.00559118107134
UTC
Height (km)
Latitude
Longitude
Inclination
Orbital Period
UTC large
Height (km)
Speed (km/s)
/
Latitude / Longitude
Inclination (degrees)
Orbital Period (minutes)
Azimuth
Elevation
Range (km)
Doppler Factor
iOS Compass Heading
iOS Angle